ETH814A HTKJ-HAAB

Flight info

Callsign ETH814A
Flight time N/A
Altitude 36000
Route DULMI2E UTATA UA727 NAK UM308 RUDOL RUDOL2A
Aircraft B38M/M-SDE1FGHILORVWXY/HB1

Departure

Time 2026-05-06 16:58
Airport Kilimanjaro International Airport (HTKJ)

Arrival

Time N/A
Airport Addis Ababa Bole International Airport (HAAB)
Time Latitude Longitude Altitude Speed Heading
2026-05-06 16:37 -3.42650 37.06658 2939 ft 0 kts 85°
2026-05-06 16:50 -3.42651 37.06643 2942 ft 4 kts 91°
2026-05-06 16:50 -3.42647 37.06617 2952 ft 4 kts 111°
2026-05-06 16:50 -3.42632 37.06597 2947 ft 4 kts 153°
2026-05-06 16:50 -3.42621 37.06593 2947 ft 1 kts 177°
2026-05-06 16:53 -3.42624 37.06593 2950 ft 2 kts 177°
2026-05-06 16:53 -3.42674 37.06593 2953 ft 12 kts 193°
2026-05-06 16:53 -3.42727 37.06509 2953 ft 19 kts 268°
2026-05-06 16:54 -3.42733 37.06355 2953 ft 24 kts 266°
2026-05-06 16:54 -3.42743 37.06184 2949 ft 25 kts 267°
2026-05-06 16:54 -3.42751 37.06010 2953 ft 23 kts 267°
2026-05-06 16:54 -3.42794 37.05864 2953 ft 23 kts 217°
2026-05-06 16:55 -3.42907 37.05846 2949 ft 9 kts 178°
2026-05-06 16:55 -3.42980 37.05852 2948 ft 12 kts 173°
2026-05-06 16:55 -3.43011 37.05891 2951 ft 6 kts 93°
2026-05-06 16:55 -3.43010 37.05905 2952 ft 0 kts 86°
2026-05-06 16:57 -3.43009 37.05929 2952 ft 6 kts 86°
2026-05-06 16:57 -3.43004 37.06016 2952 ft 38 kts 87°
2026-05-06 16:57 -3.42981 37.06552 2954 ft 114 kts 88°
2026-05-06 16:57 -3.42932 37.07580 2950 ft 178 kts 85°
2026-05-06 16:58 -3.42860 37.08883 3480 ft 197 kts 86°
2026-05-06 16:58 -3.42812 37.10150 4785 ft 174 kts 90°
2026-05-06 16:58 -3.42761 37.11432 5305 ft 195 kts 90°
2026-05-06 16:58 -3.42870 37.12857 5704 ft 219 kts 112°
2026-05-06 16:59 -3.43900 37.14065 6055 ft 246 kts 151°
2026-05-06 16:59 -3.45633 37.14408 6595 ft 269 kts 186°
2026-05-06 16:59 -3.47361 37.13643 7381 ft 279 kts 221°
2026-05-06 16:59 -3.48433 37.12016 8264 ft 288 kts 252°
2026-05-06 17:00 -3.48523 37.10013 9120 ft 293 kts 283°
2026-05-06 17:00 -3.47687 37.08153 10031 ft 296 kts 309°
2026-05-06 17:00 -3.46132 37.06782 10685 ft 307 kts 332°
2026-05-06 17:00 -3.44073 37.06091 11164 ft 322 kts 351°
2026-05-06 17:01 -3.41868 37.05523 11721 ft 334 kts 336°
2026-05-06 17:01 -3.39780 37.04482 12518 ft 337 kts 334°
2026-05-06 17:01 -3.37679 37.03421 13340 ft 339 kts 334°
2026-05-06 17:01 -3.35563 37.02336 14044 ft 343 kts 334°
2026-05-06 17:02 -3.33436 37.01233 14734 ft 346 kts 333°
2026-05-06 17:02 -3.31292 37.00119 15354 ft 350 kts 334°
2026-05-06 17:02 -3.29114 36.98982 15958 ft 355 kts 333°
2026-05-06 17:02 -3.26915 36.97832 16582 ft 359 kts 333°
2026-05-06 17:03 -3.24691 36.96668 17158 ft 363 kts 333°
2026-05-06 17:03 -3.22438 36.95494 17739 ft 367 kts 333°
2026-05-06 17:03 -3.20172 36.94306 18328 ft 370 kts 333°
2026-05-06 17:03 -3.17871 36.93106 18786 ft 375 kts 334°
2026-05-06 17:04 -3.15547 36.91903 19280 ft 378 kts 335°
2026-05-06 17:04 -3.13043 36.91129 19752 ft 377 kts 354°
2026-05-06 17:04 -3.10431 36.91177 20180 ft 379 kts 12°
2026-05-06 17:04 -3.07867 36.91837 20626 ft 381 kts 17°
2026-05-06 17:05 -3.05316 36.92588 21052 ft 385 kts 18°
2026-05-06 17:05 -3.02740 36.93376 21518 ft 387 kts 18°
2026-05-06 17:05 -3.00159 36.94180 21974 ft 390 kts 19°
2026-05-06 17:05 -2.97560 36.95002 22407 ft 393 kts 19°
2026-05-06 17:06 -2.94943 36.95834 22842 ft 396 kts 19°
2026-05-06 17:06 -2.92339 36.96665 23265 ft 399 kts 19°
2026-05-06 17:06 -2.89684 36.97513 23675 ft 402 kts 19°
2026-05-06 17:06 -2.87012 36.98366 24030 ft 404 kts 19°
2026-05-06 17:07 -2.84326 36.99224 24389 ft 406 kts 19°
2026-05-06 17:07 -2.81623 37.00087 24748 ft 409 kts 19°
2026-05-06 17:07 -2.78908 37.00953 25101 ft 411 kts 19°
2026-05-06 17:07 -2.76179 37.01825 25449 ft 413 kts 19°
2026-05-06 17:08 -2.73434 37.02701 25801 ft 415 kts 19°
2026-05-06 17:08 -2.70673 37.03580 26145 ft 417 kts 17°
2026-05-06 17:08 -2.67803 37.04052 26491 ft 420 kts
2026-05-06 17:08 -2.64877 37.03933 26829 ft 423 kts 358°
2026-05-06 17:09 -2.61920 37.03789 27123 ft 426 kts 358°
2026-05-06 17:09 -2.58959 37.03623 27489 ft 428 kts 357°
2026-05-06 17:09 -2.55975 37.03443 27807 ft 430 kts 357°
2026-05-06 17:09 -2.52977 37.03254 28131 ft 433 kts 357°
2026-05-06 17:10 -2.49965 37.03063 28455 ft 435 kts 357°
2026-05-06 17:10 -2.46935 37.02870 28777 ft 437 kts 357°
2026-05-06 17:10 -2.43893 37.02677 29101 ft 439 kts 357°
2026-05-06 17:10 -2.40836 37.02482 29406 ft 441 kts 357°
2026-05-06 17:11 -2.37764 37.02286 29700 ft 444 kts 357°
2026-05-06 17:11 -2.34679 37.02094 30022 ft 445 kts 357°
2026-05-06 17:11 -2.31582 37.01895 30267 ft 448 kts 357°
2026-05-06 17:11 -2.28466 37.01693 30526 ft 449 kts 356°
2026-05-06 17:12 -2.25344 37.01492 30778 ft 451 kts 357°
2026-05-06 17:12 -2.22210 37.01294 31052 ft 452 kts 357°
2026-05-06 17:12 -2.19065 37.01094 31320 ft 453 kts 357°
2026-05-06 17:12 -2.15911 37.00897 31561 ft 454 kts 357°
2026-05-06 17:13 -2.12756 37.00696 31824 ft 456 kts 356°
2026-05-06 17:13 -2.09585 37.00492 32080 ft 457 kts 357°
2026-05-06 17:13 -2.06408 37.00299 32283 ft 459 kts 356°
2026-05-06 17:13 -2.03218 37.00088 32546 ft 460 kts 356°
2026-05-06 17:14 -2.00017 36.99882 32800 ft 461 kts 356°
2026-05-06 17:14 -1.96811 36.99677 33024 ft 463 kts 356°
2026-05-06 17:14 -1.93637 36.99474 33251 ft 464 kts 356°
2026-05-06 17:14 -1.90408 36.99269 33483 ft 465 kts 356°
2026-05-06 17:15 -1.87182 36.99063 33774 ft 465 kts 356°
2026-05-06 17:15 -1.83953 36.98858 34075 ft 465 kts 356°
2026-05-06 17:15 -1.80731 36.98652 34352 ft 464 kts 356°
2026-05-06 17:15 -1.77513 36.98448 34633 ft 463 kts 356°
2026-05-06 17:16 -1.74298 36.98243 34913 ft 462 kts 356°
2026-05-06 17:16 -1.71096 36.98039 35170 ft 461 kts 356°
2026-05-06 17:16 -1.67897 36.97835 35422 ft 461 kts 356°
2026-05-06 17:16 -1.64700 36.97632 35675 ft 460 kts 356°
2026-05-06 17:17 -1.61503 36.97428 35922 ft 460 kts 356°
2026-05-06 17:17 -1.58312 36.97225 36126 ft 460 kts 356°
2026-05-06 17:17 -1.55116 36.97021 36163 ft 460 kts 356°
2026-05-06 17:18 -1.48750 36.96616 36158 ft 458 kts 356°
2026-05-06 17:18 -1.42391 36.96211 36155 ft 458 kts 356°
2026-05-06 17:19 -1.36024 36.95806 36157 ft 458 kts 356°
2026-05-06 17:19 -1.29825 36.94597 36148 ft 457 kts 334°
2026-05-06 17:19 -1.27133 36.92904 36161 ft 458 kts 322°
2026-05-06 17:20 -1.24595 36.90968 36156 ft 460 kts 323°
2026-05-06 17:20 -1.19558 36.87024 36156 ft 460 kts 322°
2026-05-06 17:21 -1.14562 36.83030 36178 ft 460 kts 321°
2026-05-06 17:21 -1.09581 36.79031 36179 ft 460 kts 321°
2026-05-06 17:22 -1.04623 36.75051 36173 ft 460 kts 321°
2026-05-06 17:22 -0.99632 36.71044 36169 ft 460 kts 321°
2026-05-06 17:23 -0.94645 36.67040 36166 ft 460 kts 321°
2026-05-06 17:23 -0.89652 36.63031 36167 ft 460 kts 321°
2026-05-06 17:24 -0.84657 36.59021 36168 ft 460 kts 321°
2026-05-06 17:24 -0.79664 36.55013 36161 ft 460 kts 321°
2026-05-06 17:25 -0.74677 36.51009 36162 ft 460 kts 321°
2026-05-06 17:25 -0.69687 36.47003 36164 ft 460 kts 321°
2026-05-06 17:26 -0.64701 36.43001 36157 ft 460 kts 321°
2026-05-06 17:26 -0.59706 36.38992 36153 ft 460 kts 321°
2026-05-06 17:27 -0.54710 36.34982 36148 ft 461 kts 321°
2026-05-06 17:27 -0.49710 36.30968 36141 ft 461 kts 321°
2026-05-06 17:28 -0.44709 36.26954 36134 ft 462 kts 321°
2026-05-06 17:28 -0.39699 36.22933 36131 ft 462 kts 321°
2026-05-06 17:29 -0.34632 36.18991 36117 ft 462 kts 329°
2026-05-06 17:29 -0.31725 36.17675 36114 ft 459 kts 345°
2026-05-06 17:29 -0.28589 36.17120 36116 ft 460 kts 358°
2026-05-06 17:29 -0.25399 36.17341 36109 ft 460 kts 12°
2026-05-06 17:30 -0.22287 36.18076 36116 ft 461 kts 14°
2026-05-06 17:30 -0.16078 36.19748 36103 ft 462 kts 15°
2026-05-06 17:31 -0.09909 36.21515 36102 ft 462 kts 16°
2026-05-06 17:31 -0.03745 36.23306 36096 ft 461 kts 16°
2026-05-06 17:32 0.02417 36.25099 36088 ft 460 kts 15°
2026-05-06 17:32 0.08521 36.26876 36090 ft 460 kts 15°
2026-05-06 17:33 0.14660 36.28662 36074 ft 460 kts 16°
2026-05-06 17:33 0.20800 36.30451 36062 ft 460 kts 16°
2026-05-06 17:34 0.26933 36.32234 36056 ft 459 kts 16°
2026-05-06 17:34 0.33059 36.34017 36055 ft 458 kts 16°
2026-05-06 17:35 0.39187 36.35800 36042 ft 458 kts 16°
2026-05-06 17:35 0.45308 36.37582 36037 ft 458 kts 16°
2026-05-06 17:36 0.54493 36.40255 36032 ft 458 kts 16°
2026-05-06 17:36 0.60615 36.42037 36031 ft 458 kts 16°
2026-05-06 17:37 0.66739 36.43819 36024 ft 458 kts 16°
2026-05-06 17:37 0.71824 36.45299 36016 ft 458 kts 16°
2026-05-06 17:38 0.77949 36.47082 36012 ft 459 kts 16°
2026-05-06 17:38 0.84070 36.48864 36004 ft 459 kts 16°
2026-05-06 17:39 0.90200 36.50648 36002 ft 459 kts 16°
2026-05-06 17:39 0.96333 36.52433 35993 ft 459 kts 16°
2026-05-06 17:40 1.02466 36.54232 35995 ft 459 kts 16°
2026-05-06 17:40 1.08591 36.56034 35982 ft 459 kts 16°
2026-05-06 17:41 1.14726 36.57839 35980 ft 460 kts 16°
2026-05-06 17:41 1.20859 36.59644 35970 ft 460 kts 16°
2026-05-06 17:42 1.26994 36.61449 35971 ft 460 kts 16°
2026-05-06 17:42 1.33130 36.63254 35959 ft 459 kts 16°
2026-05-06 17:43 1.39256 36.65057 35954 ft 459 kts 16°
2026-05-06 17:43 1.45393 36.66863 35944 ft 460 kts 16°
2026-05-06 17:44 1.51527 36.68668 35952 ft 459 kts 17°
2026-05-06 17:44 1.57661 36.70474 35936 ft 459 kts 16°
2026-05-06 17:45 1.63793 36.72286 35928 ft 459 kts 17°
2026-05-06 17:45 1.69924 36.74079 35938 ft 459 kts 17°
2026-05-06 17:46 1.76053 36.75888 35928 ft 459 kts 17°
2026-05-06 17:46 1.82186 36.77693 35931 ft 459 kts 17°
2026-05-06 17:47 1.88312 36.79496 35932 ft 459 kts 17°
2026-05-06 17:47 1.94439 36.81300 35932 ft 459 kts 17°
2026-05-06 17:48 2.00524 36.83092 35932 ft 459 kts 17°
2026-05-06 17:48 2.06637 36.84894 35928 ft 459 kts 16°
2026-05-06 17:49 2.12769 36.86686 35931 ft 459 kts 16°
2026-05-06 17:49 2.18892 36.88504 35913 ft 459 kts 17°
2026-05-06 17:50 2.25026 36.90313 35912 ft 460 kts 17°
2026-05-06 17:50 2.31205 36.92129 35902 ft 459 kts 17°
2026-05-06 17:51 2.37292 36.93922 35905 ft 459 kts 17°
2026-05-06 17:51 2.43424 36.95729 35894 ft 459 kts 17°
2026-05-06 17:52 2.49554 36.97535 35890 ft 460 kts 17°
2026-05-06 17:52 2.55698 36.99345 35892 ft 460 kts 17°
2026-05-06 17:53 2.61833 37.01154 35883 ft 460 kts 17°
2026-05-06 17:53 2.67966 37.02961 35879 ft 460 kts 17°
2026-05-06 17:54 2.74108 37.04772 35884 ft 460 kts 17°
2026-05-06 17:54 2.80238 37.06581 35865 ft 460 kts 17°
2026-05-06 17:55 2.86379 37.08369 35876 ft 460 kts 17°
2026-05-06 17:55 2.92507 37.10239 35866 ft 461 kts 15°
2026-05-06 17:56 2.98664 37.12017 35857 ft 461 kts 16°
2026-05-06 17:56 3.04812 37.13826 35856 ft 461 kts 16°
2026-05-06 17:57 3.10926 37.15629 35858 ft 461 kts 16°
2026-05-06 17:57 3.17076 37.17444 35849 ft 461 kts 16°
2026-05-06 17:58 3.23231 37.19260 35852 ft 461 kts 16°
2026-05-06 17:58 3.29388 37.21077 35856 ft 461 kts 16°
2026-05-06 17:59 3.35534 37.22891 35857 ft 461 kts 16°
2026-05-06 17:59 3.41687 37.24707 35855 ft 461 kts 16°
2026-05-06 18:00 3.47839 37.26523 35856 ft 461 kts 16°
2026-05-06 18:00 3.53986 37.28338 35861 ft 461 kts 16°
2026-05-06 18:01 3.60133 37.30153 35860 ft 460 kts 16°
2026-05-06 18:01 3.66281 37.31969 35871 ft 460 kts 16°
2026-05-06 18:02 3.72423 37.33783 35874 ft 460 kts 16°
2026-05-06 18:02 3.78567 37.35598 35873 ft 460 kts 16°
2026-05-06 18:03 3.84709 37.37413 35880 ft 460 kts 16°
2026-05-06 18:03 3.90849 37.39227 35886 ft 460 kts 16°
2026-05-06 18:04 3.96997 37.41044 35888 ft 460 kts 16°
2026-05-06 18:04 4.03230 37.42462 35897 ft 460 kts 11°
2026-05-06 18:05 4.09511 37.43724 35895 ft 460 kts 11°
2026-05-06 18:05 4.15780 37.45015 35907 ft 460 kts 11°
2026-05-06 18:06 4.22053 37.46312 35899 ft 460 kts 11°
2026-05-06 18:06 4.28329 37.47609 35918 ft 461 kts 11°
2026-05-06 18:07 4.34603 37.48907 35918 ft 461 kts 11°
2026-05-06 18:07 4.40880 37.50205 35922 ft 460 kts 11°
2026-05-06 18:08 4.47154 37.51502 35929 ft 461 kts 11°
2026-05-06 18:08 4.53429 37.52800 35922 ft 461 kts 11°
2026-05-06 18:09 4.59667 37.54087 35927 ft 461 kts 11°
2026-05-06 18:09 4.65945 37.55390 35925 ft 460 kts 11°
2026-05-06 18:10 4.72215 37.56688 35935 ft 460 kts 11°
2026-05-06 18:10 4.78486 37.57986 35940 ft 460 kts 11°
2026-05-06 18:11 4.84769 37.59287 35938 ft 461 kts 11°
2026-05-06 18:11 4.91050 37.60588 35936 ft 461 kts 11°
2026-05-06 18:12 4.97354 37.61894 35931 ft 465 kts 11°
2026-05-06 18:12 5.03720 37.63236 35926 ft 468 kts 10°
2026-05-06 18:13 5.10106 37.64537 35937 ft 468 kts 11°
2026-05-06 18:13 5.16496 37.65860 35931 ft 469 kts 11°
2026-05-06 18:14 5.22879 37.67184 35933 ft 469 kts 11°
2026-05-06 18:14 5.29268 37.68508 35938 ft 469 kts 11°
2026-05-06 18:15 5.35650 37.69832 35940 ft 468 kts 11°
2026-05-06 18:15 5.42032 37.71155 35940 ft 468 kts 11°
2026-05-06 18:16 5.48417 37.72480 35949 ft 468 kts 11°
2026-05-06 18:16 5.54800 37.73804 35956 ft 469 kts 11°
2026-05-06 18:17 5.61190 37.75133 35954 ft 469 kts 11°
2026-05-06 18:17 5.67576 37.76457 35958 ft 469 kts 11°
2026-05-06 18:18 5.73963 37.77783 35955 ft 469 kts 11°
2026-05-06 18:18 5.80349 37.79110 35954 ft 469 kts 11°
2026-05-06 18:19 5.86735 37.80436 35955 ft 469 kts 11°
2026-05-06 18:19 5.93116 37.81762 35954 ft 468 kts 11°
2026-05-06 18:20 5.99499 37.83109 35970 ft 468 kts 11°
2026-05-06 18:20 6.05876 37.84416 35958 ft 468 kts 11°
2026-05-06 18:21 6.12259 37.85743 35958 ft 469 kts 11°
2026-05-06 18:21 6.18649 37.87071 35950 ft 469 kts 11°
2026-05-06 18:22 6.25046 37.88398 35948 ft 470 kts 11°
2026-05-06 18:22 6.31445 37.89740 35958 ft 470 kts 11°
2026-05-06 18:23 6.37857 37.91069 35950 ft 470 kts 11°
2026-05-06 18:23 6.44231 37.92396 35953 ft 471 kts 11°
2026-05-06 18:24 6.50649 37.93732 35959 ft 471 kts 11°
2026-05-06 18:24 6.56028 37.94853 35958 ft 471 kts 11°
2026-05-06 18:25 6.63502 37.96410 35963 ft 472 kts 11°
2026-05-06 18:25 6.69924 37.97749 35970 ft 472 kts 11°
2026-05-06 18:26 6.75309 37.98872 35977 ft 472 kts 11°
2026-05-06 18:26 6.81737 38.00212 35984 ft 472 kts 11°
2026-05-06 18:27 6.88165 38.01553 35993 ft 472 kts 11°
2026-05-06 18:27 6.94554 38.02886 35997 ft 472 kts 11°
2026-05-06 18:28 7.00985 38.04228 36003 ft 472 kts 11°